Showing default

COSMOS 1912, 18791

Orbit data source: Space-Track

COSMOS 1912, 18791 is a payload satellite owned by UNKS (CIS) in LEO that was launched on Fri, 15 Jan 1988 UTC via a TSIKLON-3 launch vehicle from the Plesetsk Missile And Space Complex (PKMTR). Payload-class satellites include a variety of spacecraft equipped with specific instruments for various scientific and technological missions. These include communications satellites like Starlink; space stations such as the ISS; scientific satellites like the Hubble; Earth observation satellites from companies like Planet Labs, Umbra, and HawkEye 360; GPS; miniature CubeSats for education and research; and military/defense satellites.

Loading next visibility...
Identifier
18791, 1988-002D
Orbit
LEO
Country
Flag of CISCIS
Related business
Manufacturer
NPO PM
Mission
Defense Communications
Bus & Motor
STRELA-3, Unknown motor
Mass
225 kg wet, 225 kg dry
Launch date (UTC)
1988-01-15 (38 years ago)
Launch vehicle
TSIKLON-3
Launch site
Plesetsk Missile And Space Complex (PKMTR)
Object type
Payload
Rocket body
Debris
Shape & HBR
Cyl, 0.8 m
Radar Cross Section
1.257 m², Large (>1 m²)

Expand to show TLE details & history
Last TLE update: 17 hours ago

TLE from 17 hours ago
0 COSMOS 1912
1 18791U 88002D   25259.97445215  .00000042  00000-0  16824-3 0  9994
2 18791  82.6076  53.0257 0010526   9.7378 111.9207 12.65062102739349
Epoch: 2025-09-16T23:23Z
TLE epoch observation values (Epoch: 2025-09-16T23:23:12.665Z)
Latitude
57.55934°
Longitude
-125.65318°
Altitude
1,414.81 km
Speed
7.157 km/s
True Right ascension
14h 45m 13s
True Declination
57° 24' 60"
Sunlit
Object was in daylight at epoch
Visualization orbit readout
Latitude
Unknown
Longitude
Unknown
Altitude
Unknown
Speed
Unknown
Apparent Right ascension
Unknown
Apparent Declination
Unknown
Sunlit
N/A
Visualization observer readout
Local Sidereal Time
09:38:41
Azimuth
Unknown
Elevation
Unknown
Doppler factor
Unknown
Orbital elements
Apogee altitude
1,407.622 km
Perigee altitude
1,391.249 km
Semi-major axis
7,777.573 km
Eccentricity
0.00105
Inclination
82.6076°
RAAN
53.0257°
Arg. of periapsis
9.7378°
True anomaly
112.03254°
Mean anomaly
111.9207°
Eccentric anomaly
111.97663°
Mean motion
3.1643 °/min
Orbital period
113.77 mins
BSTAR
0.00016824
Loading maneuver chart data...
Computing Atmospheric mass density...
Loading historical data...
Loading historical data...
Loading historical data...
Loading historical data...
Loading historical data...
Loading historical data...
Loading historical data...

Documentation

Showing up to 5 results
|